FW1757 Weather Reports


time (UTC)temp
C
wind
direction
speed
KPH
gust
KPH
rain 1hr
cm
rain 24hr
cm
rain mn
cm
humidity
%
barometer
mb
20260906174605 12 211 0.0 0.0 0.00 0.58 0.58 1 1015.6
20260906174057 12 212 0.0 0.0 0.00 0.58 0.58 1 1015.7
20260906173555 12 212 0.0 0.0 0.00 0.58 0.58 1 1015.6
20260906173056 12 212 0.0 0.0 0.00 0.58 0.58 1 1015.6
20260906172553 12 212 0.0 0.0 0.00 0.58 0.58 1 1015.5
20260906172052 12 212 0.0 0.0 0.00 0.58 0.58 1 1015.6
20260906171549 12 212 0.0 0.0 0.00 0.58 0.58 1 1015.6
20260906171047 12 212 0.0 0.0 0.00 0.58 0.58 1 1015.6
20260906170546 12 212 0.0 0.0 0.00 0.58 0.58 1 1015.6
20260906170045 12 212 0.0 0.0 0.00 0.58 0.58 1 1015.5
20260906165543 12 212 0.0 0.0 0.00 0.58 0.58 1 1015.6
20260906165041 12 212 0.0 0.0 0.00 0.58 0.58 1 1015.5
20260906164540 12 212 0.0 0.0 0.03 0.58 0.58 1 1015.5
20260906164038 12 212 0.0 0.0 0.03 0.58 0.58 1 1015.4
20260906163537 12 212 0.0 0.0 0.03 0.58 0.58 1 1015.5
20260906163049 12 211 0.0 0.0 0.03 0.58 0.58 1 1015.5
20260906162534 12 211 0.0 0.0 0.05 0.58 0.58 1 1015.5
20260906162033 12 209 0.0 0.0 0.08 0.58 0.58 1 1015.4
20260906161532 12 209 0.0 0.0 0.10 0.58 0.58 1 1015.4
20260906161032 12 209 0.0 0.0 0.13 0.58 0.58 1 1015.4
20260906160529 12 209 0.0 0.0 0.18 0.58 0.58 1 1015.4
20260906160028 12 209 0.0 0.0 0.20 0.58 0.58 1 1015.4
20260906155526 12 209 0.0 0.0 0.25 0.58 0.58 1 1015.4
20260906155024 12 209 0.0 0.0 0.25 0.56 0.56 1 1015.3
20260906154523 12 209 0.0 0.0 0.28 0.56 0.56 1 1015.3
20260906154022 12 225 0.0 0.0 0.30 0.56 0.56 1 1015.4
20260906153520 12 225 0.0 0.0 0.36 0.56 0.56 1 1015.3
20260906153019 12 225 0.0 0.0 0.41 0.56 0.56 1 1015.3
20260906152517 12 225 0.0 0.0 0.41 0.53 0.53 1 1015.4
20260906152019 12 225 0.0 0.0 0.41 0.51 0.51 1 1015.3
20260906151514 12 225 0.0 0.0 0.38 0.48 0.48 1 1015.2
20260906151012 12 225 0.0 0.0 0.33 0.43 0.43 1 1015.1
20260906150511 12 225 0.0 0.0 0.30 0.41 0.41 1 1015.0
20260906150013 12 225 0.0 0.0 0.25 0.36 0.36 1 1015.0
20260906145509 12 225 0.0 0.0 0.25 0.33 0.33 1 1015.1
20260906145009 12 225 0.0 0.0 0.23 0.30 0.30 1 1015.1
20260906144506 12 225 0.0 0.0 0.18 0.25 0.25 1 1015.0
20260906144007 12 225 0.0 0.0 0.15 0.23 0.23 1 1014.9
20260906143503 12 225 0.0 0.0 0.15 0.20 0.20 1 1014.9
20260906143001 12 225 0.0 0.0 0.10 0.15 0.15 1 1014.7
20260906142600 12 225 0.0 0.0 0.08 0.13 0.13 1 1014.7
20260906142058 12 225 0.0 0.0 0.05 0.10 0.10 1 1014.5
20260906141600 12 225 0.0 0.0 0.05 0.10 0.10 1 1014.5
20260906141055 12 225 0.0 0.0 0.05 0.10 0.10 1 1014.5
20260906140557 12 225 0.0 0.0 0.05 0.10 0.10 1 1014.4
20260906140103 12 225 0.0 0.0 0.05 0.10 0.10 1 1014.3
20260906135552 12 224 0.0 0.0 0.03 0.08 0.08 1 1014.3
20260906135054 12 225 0.0 0.0 0.03 0.08 0.08 1 1014.2
20260906134602 12 225 0.0 0.0 0.03 0.08 0.08 1 1014.1
20260906134046 12 225 0.0 0.0 0.03 0.08 0.08 1 1014.1
20260906133544 12 225 0.0 0.0 0.00 0.05 0.05 1 1014.0
20260906133044 12 225 0.0 0.0 0.00 0.05 0.05 1 1014.0
20260906132544 12 225 0.0 0.0 0.00 0.05 0.05 1 1014.0
20260906132040 12 225 0.0 0.0 0.00 0.05 0.05 1 1013.8
20260906131539 12 225 0.0 0.0 0.00 0.05 0.05 1 1013.8
20260906131038 12 225 0.0 0.0 0.00 0.05 0.05 1 1014.0
20260906130537 12 225 0.0 0.0 0.00 0.05 0.05 1 1013.7
20260906130034 12 225 0.0 0.0 0.00 0.05 0.05 1 1013.8
20260906125536 12 225 0.0 0.0 0.00 0.05 0.05 1 1013.7
20260906125031 12 225 0.0 0.0 0.00 0.05 0.05 1 1013.9
20260906124530 12 225 0.0 0.0 0.00 0.05 0.05 1 1013.8
20260906124028 12 225 0.0 0.0 0.00 0.05 0.05 1 1013.8
20260906123526 12 225 0.0 0.0 0.00 0.05 0.05 1 1013.8
20260906123032 12 225 0.0 0.0 0.00 0.05 0.05 1 1013.9
20260906122526 12 225 0.0 0.0 0.00 0.05 0.05 1 1013.9
20260906122025 12 225 0.0 0.0 0.00 0.05 0.05 1 1014.1
20260906121527 12 225 0.0 0.0 0.00 0.05 0.05 1 1014.1
20260906121020 12 225 0.0 0.0 0.00 0.05 0.05 1 1013.9
20260906120518 12 225 0.0 0.0 0.00 0.05 0.05 1 1014.0
20260906120016 12 225 0.0 0.0 0.00 0.05 0.05 1 1014.0
20260906115515 12 225 0.0 0.0 0.00 0.05 0.05 1 1014.1
20260906115013 12 225 0.0 0.0 0.00 0.05 0.05 1 1014.2
20260906114532 12 225 0.0 0.0 0.00 0.05 0.05 1 1014.2
20260906114011 12 225 0.0 0.0 0.00 0.05 0.05 1 1014.2
20260906113509 12 225 0.0 0.0 0.00 0.05 0.05 1 1014.2
20260906113008 12 225 0.0 0.0 0.00 0.05 0.05 1 1014.1
20260906112506 12 225 0.0 0.0 0.00 0.05 0.05 1 1014.2
20260906112005 12 225 0.0 0.0 0.00 0.05 0.05 1 1014.1
20260906111503 12 225 0.0 0.0 0.00 0.05 0.05 1 1014.1
20260906111001 12 225 0.0 0.0 0.00 0.05 0.05 1 1014.2
20260906110601 12 225 0.0 0.0 0.00 0.05 0.05 1 1014.1
20260906110058 12 225 0.0 0.0 0.03 0.05 0.05 1 1014.1
20260906105557 12 225 0.0 0.0 0.03 0.05 0.05 1 1014.1
20260906105057 12 225 0.0 0.0 0.03 0.05 0.05 1 1014.2
20260906104554 13 225 0.0 0.0 0.03 0.05 0.05 1 1014.1
20260906104053 13 225 0.0 0.0 0.03 0.05 0.05 1 1014.3
20260906103552 13 225 0.0 0.0 0.03 0.05 0.05 1 1014.2
20260906103051 13 225 0.0 0.0 0.03 0.05 0.05 1 1014.5
20260906102549 13 225 0.0 0.0 0.03 0.05 0.05 1 1014.4
20260906102050 13 225 0.0 0.0 0.03 0.05 0.05 1 1014.5
20260906101546 13 360 0.0 0.0 0.03 0.05 0.05 1 1014.5
20260906101047 13 225 0.0 0.0 0.05 0.05 0.05 1 1014.6
20260906100543 13 225 0.0 0.0 0.05 0.05 0.05 1 1014.6
20260906100041 13 225 0.0 0.0 0.03 0.03 0.03 1 1014.7
20260906095540 13 360 0.0 0.0 0.03 0.03 0.03 1 1014.7
20260906095038 13 225 0.0 0.0 0.03 0.03 0.03 1 1014.6
20260906094546 13 225 0.0 0.0 0.03 0.03 0.03 1 1014.7
20260906094036 13 225 0.0 0.0 0.03 0.03 0.03 1 1014.7
20260906093534 13 225 0.0 0.0 0.03 0.03 0.03 2 1014.7
20260906093033 13 225 0.0 0.0 0.03 0.03 0.03 8 1014.5
20260906092531 13 360 0.0 0.0 0.03 0.03 0.03 9 1014.4
20260906092030 13 225 0.0 0.0 0.03 0.03 0.03 9 1014.3
20260906091534 13 360 0.0 0.0 0.03 0.03 0.03 12 1014.4
20260906091028 13 360 0.0 0.0 0.00 0.00 0.00 12 1014.5
20260906090528 13 360 0.0 0.0 0.00 0.00 0.00 13 1014.4
20260906090027 13 360 0.0 0.0 0.00 0.00 0.00 15 1014.5
20260906085527 13 360 0.0 0.0 0.00 0.00 0.00 17 1014.5
20260906085027 13 360 0.0 0.0 0.00 0.00 0.00 18 1014.4
20260906084532 14 360 0.0 0.0 0.00 0.00 0.00 20 1014.3
20260906084025 14 360 0.0 0.0 0.00 0.00 0.00 22 1014.3
20260906083526 14 360 0.0 0.0 0.00 0.00 0.00 23 1014.5
20260906083024 14 360 0.0 0.0 0.00 0.00 0.00 28 1014.3
20260906082523 14 360 0.0 0.0 0.00 0.00 0.00 32 1014.3
20260906082022 14 360 0.0 0.0 0.00 0.00 0.00 32 1014.3
20260906081528 14 360 0.0 0.0 0.00 0.00 0.00 31 1014.3
20260906081022 14 360 0.0 0.0 0.00 0.00 0.00 32 1014.4
20260906080522 14 360 0.0 0.0 0.00 0.00 0.00 35 1014.4
20260906080021 14 360 0.0 0.0 0.00 0.00 0.00 36 1014.4
20260906075521 14 360 0.0 0.0 0.00 0.00 0.00 38 1014.4
20260906075023 14 360 0.0 0.0 0.00 0.00 0.00 37 1014.3
20260906074521 14 360 0.0 0.0 0.00 0.00 0.00 37 1014.4
20260906074020 14 360 0.0 0.0 0.00 0.00 0.00 36 1014.3
20260906073521 14 360 0.0 0.0 0.00 0.00 0.00 36 1014.4
20260906073022 13 360 0.0 0.0 0.00 0.00 0.00 36 1014.5
20260906072519 13 360 0.0 0.0 0.00 0.00 0.00 36 1014.4
20260906072019 13 360 0.0 0.0 0.00 0.00 0.00 36 1014.5
20260906071518 13 360 0.0 0.0 0.00 0.00 0.00 37 1014.5
20260906071017 13 360 0.0 0.0 0.00 0.00 0.00 37 1014.7
20260906070516 13 360 0.0 0.0 0.00 0.00 0.00 39 1014.6
20260906070016 13 360 0.0 0.0 0.00 0.00 0.00 38 1014.6
20260906065514 13 360 0.0 0.0 0.00 0.00 0.00 38 1014.6
20260906065013 13 360 0.0 0.0 0.00 0.00 0.00 39 1014.6
20260906064521 13 360 0.0 0.0 0.00 0.00 0.00 40 1014.8
20260906064010 13 360 0.0 0.0 0.00 0.00 0.00 43 1014.7
20260906063509 13 360 0.0 0.0 0.00 0.00 0.00 44 1014.6
20260906063007 14 360 0.0 0.0 0.00 0.00 0.00 45 1014.7
20260906062505 14 225 0.0 0.0 0.00 0.00 0.00 47 1014.8
20260906062004 14 225 0.0 0.0 0.00 0.00 0.00 49 1014.8
20260906061503 14 225 0.0 0.0 0.00 0.00 0.00 49 1014.8
20260906061001 14 225 0.0 0.0 0.00 0.00 0.00 50 1014.8
20260906060600 14 225 0.0 0.0 0.00 0.00 0.00 51 1014.8
20260906060147 15 225 0.0 0.0 0.00 0.00 0.00 52 1014.7
20260906055557 15 225 0.0 0.0 0.00 0.00 0.00 53 1014.8
20260906055056 15 225 0.0 0.0 0.00 0.00 0.00 54 1014.8
20260906054554 15 225 0.0 0.0 0.00 0.00 0.00 55 1014.8
20260906054055 15 225 0.0 0.0 0.00 0.00 0.00 56 1014.8
20260906053550 15 225 0.0 0.0 0.00 0.00 0.00 56 1014.7
20260906053049 15 225 0.0 0.0 0.00 0.00 0.00 57 1014.9
20260906052548 15 225 0.0 0.0 0.00 0.00 0.00 58 1014.9
20260906052047 15 225 0.0 0.0 0.00 0.00 0.00 58 1014.9
20260906051545 15 225 0.0 0.0 0.00 0.00 0.00 58 1015.0
20260906051045 15 231 0.0 0.0 0.00 0.00 0.00 59 1015.0
20260906050542 15 230 0.0 0.0 0.00 0.00 0.00 59 1014.9
20260906050041 15 238 0.0 0.0 0.00 0.00 0.00 59 1015.0
20260906045540 15 252 0.0 0.0 0.00 0.00 0.00 59 1015.0
20260906045038 15 252 0.0 0.0 0.00 0.00 0.00 60 1014.9
20260906044536 15 252 0.0 0.0 0.00 0.00 0.00 61 1015.0
20260906044037 15 252 0.0 0.0 0.00 0.00 0.00 60 1015.0
20260906043534 16 252 0.0 0.0 0.00 0.00 0.00 60 1014.9
20260906043038 16 252 0.0 0.0 0.00 0.00 0.00 60 1014.9
20260906042530 16 252 0.0 0.0 0.00 0.00 0.00 61 1015.0
20260906042030 16 252 0.0 0.0 0.00 0.00 0.00 61 1015.0
20260906041531 16 252 0.0 0.0 0.00 0.00 0.00 60 1014.9
20260906041027 16 253 0.0 0.0 0.00 0.00 0.00 62 1014.8
20260906040525 16 253 0.0 0.0 0.00 0.00 0.00 61 1014.9
20260906040033 16 254 0.0 0.0 0.00 0.00 0.00 62 1014.9
20260906035528 16 254 0.0 0.0 0.00 0.00 0.00 63 1014.8
20260906035020 16 260 0.0 0.0 0.00 0.00 0.00 64 1014.8
20260906034527 16 218 0.0 0.0 0.00 0.00 0.00 65 1014.8
20260906034018 16 218 0.0 0.0 0.00 0.00 0.00 65 1014.7
20260906033518 16 218 0.0 0.0 0.00 0.00 0.00 65 1014.7
20260906033018 16 218 0.0 0.0 0.00 0.00 0.00 65 1014.5
20260906032515 16 218 0.0 0.0 0.00 0.00 0.00 65 1014.5
20260906032017 17 218 0.0 0.0 0.00 0.00 0.00 65 1014.5
20260906031519 17 218 0.0 0.0 0.00 0.00 0.00 65 1014.4
20260906031011 17 218 0.0 0.0 0.00 0.00 0.00 64 1014.3
20260906030510 17 276 0.0 0.0 0.00 0.00 0.00 63 1014.4
20260906030008 18 276 0.0 0.0 0.00 0.00 0.00 62 1014.3
20260906025510 18 276 0.0 0.0 0.00 0.00 0.00 61 1014.3
20260906025005 18 276 0.0 0.0 0.00 0.00 0.00 61 1014.3
20260906024504 18 276 0.0 0.0 0.00 0.00 0.00 60 1014.3
20260906024002 19 276 0.0 0.0 0.00 0.00 0.00 60 1014.3
20260906023501 19 276 0.0 0.0 0.00 0.00 0.00 60 1014.3
20260906023111 19 276 0.0 0.0 0.00 0.00 0.00 59 1014.3
20260906022602 19 276 0.0 0.0 0.00 0.00 0.00 59 1014.4
20260906022057 20 276 0.0 0.0 0.00 0.00 0.00 59 1014.3
20260906021556 20 276 0.0 0.0 0.00 0.00 0.00 58 1014.3
20260906021053 20 276 0.0 0.0 0.00 0.00 0.00 58 1014.3
20260906020552 20 276 0.0 0.0 0.00 0.00 0.00 57 1014.2
20260906020057 20 277 0.0 0.0 0.00 0.00 0.00 57 1014.2
20260906015549 20 277 0.0 0.0 0.00 0.00 0.00 57 1014.3
20260906015049 20 277 0.0 0.0 0.00 0.00 0.00 57 1014.2
20260906014548 20 277 0.0 0.0 0.00 0.00 0.00 58 1014.3
20260906014046 20 277 0.0 0.0 0.00 0.00 0.00 59 1014.3
20260906013545 20 277 0.0 0.0 0.00 0.00 0.00 59 1014.3
20260906013045 20 277 0.0 0.0 0.00 0.00 0.00 59 1014.4
20260906012545 20 277 0.0 0.0 0.00 0.00 0.00 59 1014.5
20260906012045 20 277 0.0 0.0 0.00 0.00 0.00 59 1014.5
20260906011547 20 279 0.0 0.0 0.00 0.00 0.00 59 1014.4
20260906011044 20 223 0.0 0.0 0.00 0.00 0.00 60 1014.4
20260906010544 20 257 0.0 0.0 0.00 0.00 0.00 61 1014.5
20260906010044 19 213 0.0 0.0 0.00 0.00 0.00 61 1014.6
20260906005544 19 202 0.0 0.0 0.00 0.00 0.00 63 1014.6
20260906005044 18 232 0.0 0.0 0.00 0.00 0.00 62 1014.7
20260906004550 18 263 0.0 0.0 0.00 0.00 0.00 62 1014.6
20260906004044 18 158 0.0 0.0 0.00 0.00 0.00 64 1014.7
20260906003544 18 159 0.0 0.0 0.00 0.00 0.00 63 1014.8
20260906003049 18 201 0.0 0.0 0.00 0.00 0.00 63 1014.9
20260906002543 18 198 0.0 0.0 0.00 0.00 0.00 61 1014.9
20260906002044 19 179 0.0 0.0 0.00 0.00 0.00 60 1014.8
20260906001545 19 198 0.0 0.0 0.00 0.00 0.00 58 1014.8
20260906001040 19 238 0.0 0.0 0.00 0.00 0.00 58 1014.8
20260906000539 20 190 0.0 0.0 0.00 0.00 0.00 57 1014.8
20260906000038 20 250 0.0 0.0 0.00 0.00 0.00 55 1014.7
20260905235539 20 256 0.0 0.0 0.00 0.00 0.00 55 1014.8
20260905235034 20 248 0.0 0.0 0.00 0.00 0.00 54 1014.7
20260905234534 20 285 0.0 0.0 0.00 0.00 0.00 54 1014.6
20260905234032 20 279 0.0 0.0 0.00 0.00 0.00 54 1014.7
20260905233531 20 290 0.0 0.0 0.00 0.00 0.00 53 1014.6
20260905233032 20 286 0.0 0.0 0.00 0.00 0.00 53 1014.4
20260905232528 21 291 0.0 0.0 0.00 0.00 0.00 53 1014.6
20260905232029 21 285 0.0 0.0 0.00 0.00 0.00 52 1014.6
20260905231533 21 274 0.0 0.0 0.00 0.00 0.00 51 1014.6
20260905231026 22 306 0.0 0.0 0.00 0.00 0.00 49 1014.5
20260905230521 22 298 0.0 0.0 0.00 0.00 0.00 47 1014.6
20260905230020 23 288 0.0 0.0 0.00 0.00 0.00 45 1014.6
20260905225519 23 269 0.0 0.0 0.00 0.00 0.00 44 1014.5
20260905225017 24 281 0.0 0.0 0.00 0.00 0.00 44 1014.4
20260905224521 25 279 0.0 0.0 0.00 0.00 0.00 42 1014.4
20260905224023 25 263 0.0 0.0 0.00 0.00 0.00 40 1014.4
20260905223512 25 355 0.0 0.0 0.00 0.00 0.00 39 1014.4
20260905223011 25 333 0.0 0.0 0.00 0.00 0.00 38 1014.4
20260905222510 25 78 0.0 0.0 0.00 0.00 0.00 38 1014.4
20260905222008 25 96 0.0 0.0 0.00 0.00 0.00 39 1014.4
20260905221506 24 321 0.0 0.0 0.00 0.00 0.00 39 1014.5
20260905221005 24 48 0.0 0.0 0.00 0.00 0.00 41 1014.6
20260905220506 23 305 0.0 0.0 0.00 0.00 0.00 43 1014.6
20260905220002 23 329 0.0 0.0 0.00 0.00 0.00 46 1014.6
20260905215601 23 330 0.0 0.0 0.00 0.00 0.00 42 1014.6
20260905215101 23 142 0.0 0.0 0.00 0.00 0.00 40 1014.8
20260905214606 23 144 0.0 0.0 0.00 0.00 0.00 39 1014.7
20260905214057 22 223 0.0 0.0 0.00 0.00 0.00 42 1014.7
20260905213554 22 165 0.0 0.0 0.00 0.00 0.00 43 1014.8
20260905213055 22 154 0.0 0.0 0.00 0.00 0.00 44 1014.8
20260905212556 22 168 0.0 0.0 0.00 0.00 0.00 43 1014.9
20260905212050 22 185 0.0 0.0 0.00 0.00 0.00 43 1014.9
20260905211550 22 198 0.0 0.0 0.00 0.00 0.00 42 1015.0
20260905211047 22 280 0.0 0.0 0.00 0.00 0.00 43 1014.9
20260905210547 22 279 0.0 0.0 0.00 0.00 0.00 43 1014.9
20260905210053 22 122 0.0 0.0 0.00 0.00 0.00 45 1015.1
20260905205544 22 103 0.0 0.0 0.00 0.03 0.00 44 1015.1
20260905205042 23 61 0.0 0.0 0.00 0.03 0.00 43 1015.1
20260905204543 23 61 0.0 0.0 0.00 0.03 0.00 43 1015.1
20260905204039 23 34 0.0 0.0 0.00 0.03 0.00 43 1015.1
20260905203538 23 107 0.0 0.0 0.00 0.03 0.00 44 1015.2
20260905203038 23 52 0.0 0.0 0.00 0.03 0.00 44 1015.2
20260905202535 23 154 0.0 0.0 0.00 0.03 0.00 45 1015.1
20260905202033 23 32 0.0 0.0 0.00 0.03 0.00 46 1015.2
20260905201531 22 70 0.0 0.0 0.00 0.03 0.00 47 1015.2
20260905201030 22 55 0.0 0.0 0.00 0.03 0.00 48 1015.2
20260905200533 22 17 0.0 0.0 0.00 0.03 0.00 49 1015.2
20260905200029 22 29 0.0 0.0 0.00 0.03 0.00 50 1015.4
20260905195526 21 193 0.0 0.0 0.00 0.03 0.00 52 1015.3
20260905195024 21 70 0.0 0.0 0.00 0.03 0.00 54 1015.4
20260905194523 20 325 0.0 0.0 0.00 0.03 0.00 57 1015.6
20260905194021 20 29 0.0 0.0 0.00 0.03 0.00 57 1015.5
20260905193520 20 350 0.0 0.0 0.00 0.03 0.00 60 1015.5
20260905193018 20 344 0.0 0.0 0.00 0.03 0.00 60 1015.6
20260905192520 20 325 0.0 0.0 0.00 0.03 0.00 62 1015.7
20260905192015 19 302 0.0 0.0 0.00 0.03 0.00 62 1015.8
20260905191514 19 286 0.0 0.0 0.00 0.03 0.00 62 1015.8
20260905191012 18 273 0.0 0.0 0.00 0.03 0.00 64 1015.9
20260905190513 18 273 0.0 0.0 0.00 0.03 0.00 64 1015.9
20260905190023 18 247 0.0 0.0 0.00 0.03 0.00 65 1016.1
20260905185508 18 247 0.0 0.0 0.00 0.03 0.00 65 1016.1
20260905185010 18 246 0.0 0.0 0.00 0.03 0.00 65 1016.2
20260905184509 17 237 0.0 0.0 0.00 0.03 0.00 66 1016.2
20260905184007 17 236 0.0 0.0 0.00 0.03 0.00 65 1016.3
20260905183503 17 277 0.0 0.0 0.00 0.03 0.00 66 1016.4
20260905183002 17 277 0.0 0.0 0.00 0.03 0.00 66 1016.4
20260905182600 17 263 0.0 0.0 0.00 0.03 0.00 66 1016.4
20260905182059 16 263 0.0 0.0 0.00 0.03 0.00 66 1016.4
20260905181557 16 263 0.0 0.0 0.00 0.03 0.00 66 1016.4
20260905181055 16 263 0.0 0.0 0.00 0.03 0.00 65 1016.5
20260905180554 16 263 0.0 0.0 0.00 0.03 0.00 63 1016.5
20260905180111 16 264 0.0 0.0 0.00 0.03 0.00 59 1016.6
20260905175552 15 264 0.0 0.0 0.00 0.03 0.00 54 1016.7
20260905175052 15 263 0.0 0.0 0.00 0.03 0.00 51 1016.6